Regional Weather Roundup
Issued by NWS Spokane, WA

Home | Current Version | Previous Version | Text Only | Print | Product List | Glossary On
Versions: 1 2 3 4 5 6 7 8 9 10 11 12 13 14 15 16 17 18 19 20 21 22 23 24 25 26 27 28 29 30 31 32 33 34 35 36 37 38 39 40 41 42 43 44 45 46 47 48 49 50
000
NZUS01 KOTX 220910
RWROTX
EASTERN WASHINGTON/NORTHERN IDAHO ROUNDUP
NATIONAL WEATHER SERVICE, SPOKANE WA
200 AM PDT FRI MAY 22 2015

Note: "fair" indicated few or no clouds below 12,000 feet with no
significant weather and/or obstructions to visibility.

...NORTHEAST WASHINGTON AND NORTHERN IDAHO PANHANDLE...

CITY           SKY/WX    TMP DP  RH WIND       PRES   REMARKS
SPOKANE INTL   MOCLDY    64  51  62 W7        29.84S
SPOKANE DOWNTO CLOUDY    66  51  58 CALM      29.83F
COEUR D ALENE  PTCLDY    61  46  59 CALM      29.84S
DEER PARK      MOCLDY    55  49  80 N5        29.84F
SANDPOINT      PTCLDY    52  41  66 CALM      29.86S
BONNERS FERRY  FAIR      55  39  54 CALM      29.86R

...SOUTHEAST WASHINGTON AND SOUTHERN IDAHO PANHANDLE...

CITY           SKY/WX    TMP DP  RH WIND       PRES   REMARKS
WALLA WALLA    CLOUDY    65  53  65 S7        29.82S
PULLMAN/MOSCOW MOCLDY    57  52  83 CALM      29.87S
LEWISTON       MOCLDY    63  53  70 SE6       29.83R
LOWELL           N/A     53  50  89 CALM      29.90R

...COLUMBIA BASIN...

CITY           SKY/WX    TMP DP  RH WIND       PRES   REMARKS
EPHRATA        MOCLDY    62  46  55 S5        29.80R
MOSES LAKE     MOCLDY    65  53  65 S7        29.81R
TRI CITIES     PTCLDY    64  55  72 SW6       29.79R
HERMISTON      PTCLDY    61  53  75 S6        29.80S
PENDLETON      PTCLDY    58  51  78 SE6       29.84R

...EAST SLOPES CASCADES...

CITY           SKY/WX    TMP DP  RH WIND       PRES   REMARKS
THE DALLES     MOCLDY    67  57  70 MISG      29.80S
YAKIMA         MOCLDY    62  51  67 W6        29.81S
ELLENSBURG     MOCLDY    62  52  69 NW14      29.82F
WENATCHEE      MOCLDY    67  48  50 W6        29.81S
OMAK           MOCLDY    60  46  59 NW9       29.81R

...SOUTHERN BRITISH COLUMBIA...

CITY           SKY/WX    TMP DP  RH WIND       PRES   REMARKS
PENTICTON      PTCLDY    57  46  67 VRB2      29.82R
CRANBROOK      CLEAR     54  28  37 W10       29.92R

...WESTERN MONTANA...

CITY           SKY/WX    TMP DP  RH WIND       PRES   REMARKS
MISSOULA       CLEAR     46  41  82 N7        29.93S

...NEIGHBORING CITIES...

CITY           SKY/WX    TMP DP  RH WIND       PRES   REMARKS
SEATTLE        MOCLDY    54  50  86 S9        29.91S
CALGARY        CLEAR     43  28  56 VRB2      29.98S



USA.gov is the U.S. government's official web portal to all federal, state and local government web resources and services.